Location: Fort Worth, Tx
(32.7431°N, 97.3695°W)
Time: 01:12:00
(UTC-04:00)

Vanguard 2 - Pass Details

Date: 23 February 2024
Orbit: 552 x 2916 km, 32.9° (Epoch: 24 April)

Event Time Altitude Azimuth Distance (km) Brightness Sun altitude
Rises 22:13:51 0° 258° (WSW) 4,882 12.4 -36.8°
Reaches altitude 10° 22:16:36 10° 258° (WSW) 4,160 11.9 -37.3°
Maximum altitude 22:28:50 87° 171° (S) 2,480 9.8 -39.8°
Enters shadow 22:30:46 75° 91° (E) 2,623 9.8 -40.2°
